| time (UTC) | temp F | wind direction | speed MPH | gust MPH | rain 1hr in | rain 24hr in | rain mn in | humidity % | barometer mb |
| 20260503184212 | 64 | 191 | 0.0 | 1.0 | 0.00 | 0.00 | 0.00 | 59 | 1014.2 |
| 20260503183708 | 64 | 155 | 0.0 | 0.0 | 0.00 | 0.00 | 0.00 | 60 | 1014.4 |
| 20260503183205 | 64 | 326 | 2.0 | 2.0 | 0.00 | 0.00 | 0.00 | 60 | 1014.3 |
| 20260503182704 | 63 | 185 | 1.0 | 1.0 | 0.00 | 0.00 | 0.00 | 61 | 1014.3 |
| 20260503182202 | 63 | 94 | 2.0 | 2.0 | 0.00 | 0.00 | 0.00 | 62 | 1014.5 |
| 20260503181658 | 63 | 183 | 0.0 | 0.0 | 0.00 | 0.00 | 0.00 | 62 | 1014.3 |
| 20260503181155 | 62 | 192 | 1.0 | 1.0 | 0.00 | 0.00 | 0.00 | 63 | 1014.2 |
| 20260503180651 | 62 | 13 | 2.0 | 2.0 | 0.00 | 0.00 | 0.00 | 64 | 1014.4 |
| 20260503180150 | 63 | 236 | 0.0 | 0.0 | 0.00 | 0.00 | 0.00 | 64 | 1014.5 |
| 20260503175647 | 62 | 172 | 0.0 | 0.0 | 0.00 | 0.00 | 0.00 | 63 | 1014.5 |
| 20260503175144 | 62 | 202 | 0.0 | 0.0 | 0.00 | 0.00 | 0.00 | 64 | 1014.4 |
| 20260503174640 | 61 | 150 | 1.0 | 2.0 | 0.00 | 0.00 | 0.00 | 64 | 1014.3 |
| 20260503174138 | 61 | 201 | 0.0 | 1.0 | 0.00 | 0.00 | 0.00 | 65 | 1014.4 |
| 20260503173632 | 61 | 168 | 0.0 | 1.0 | 0.00 | 0.00 | 0.00 | 66 | 1014.4 |
| 20260503173129 | 60 | 219 | 1.0 | 2.0 | 0.00 | 0.00 | 0.00 | 67 | 1014.4 |
| 20260503172621 | 60 | 220 | 1.0 | 1.0 | 0.00 | 0.00 | 0.00 | 69 | 1014.3 |
| 20260503172118 | 60 | 151 | 1.0 | 1.0 | 0.00 | 0.00 | 0.00 | 69 | 1014.5 |
| 20260503171614 | 62 | 169 | 1.0 | 1.0 | 0.00 | 0.00 | 0.00 | 66 | 1014.4 |
| 20260503171112 | 61 | 259 | 0.0 | 1.0 | 0.00 | 0.00 | 0.00 | 69 | 1014.4 |
| 20260503170609 | 60 | 200 | 0.0 | 0.0 | 0.00 | 0.00 | 0.00 | 71 | 1014.3 |
| 20260503170105 | 59 | 177 | 0.0 | 0.0 | 0.00 | 0.00 | 0.00 | 73 | 1014.4 |
| 20260503151000 | 58 | 184 | 0.0 | 0.0 | 0.00 | 0.00 | 0.00 | 71 | 1013.8 |
| 20260503150456 | 58 | 169 | 0.0 | 0.0 | 0.00 | 0.00 | 0.00 | 72 | 1013.8 |
| 20260503131349 | 55 | 187 | 0.0 | 0.0 | 0.00 | 0.00 | 0.00 | 80 | 1012.5 |
| 20260503130847 | 55 | 187 | 0.0 | 0.0 | 0.00 | 0.00 | 0.00 | 80 | 1012.6 |
| 20260503130344 | 55 | 171 | 0.0 | 0.0 | 0.00 | 0.00 | 0.00 | 80 | 1012.4 |
| 20260503110733 | 55 | 192 | 1.0 | 1.0 | 0.00 | 0.00 | 0.00 | 79 | 1012.5 |
| 20260503110230 | 55 | 202 | 0.0 | 1.0 | 0.00 | 0.00 | 0.00 | 80 | 1012.4 |
| 20260503100155 | 55 | 195 | 0.0 | 1.0 | 0.00 | 0.00 | 0.00 | 79 | 1012.5 |
| 20260503090114 | 55 | 270 | 1.0 | 2.0 | 0.00 | 0.00 | 0.00 | 79 | 1012.8 |
| 20260503081550 | 56 | 209 | 1.0 | 1.0 | 0.00 | 0.00 | 0.00 | 78 | 1013.2 |
| 20260503081048 | 56 | 206 | 1.0 | 1.0 | 0.00 | 0.00 | 0.00 | 78 | 1013.1 |
| 20260503080544 | 56 | 293 | 2.0 | 2.0 | 0.00 | 0.00 | 0.00 | 78 | 1013.2 |
| 20260503072517 | 56 | 188 | 0.0 | 0.0 | 0.00 | 0.00 | 0.00 | 78 | 1013.3 |
| 20260503072014 | 56 | 294 | 1.0 | 1.0 | 0.00 | 0.00 | 0.00 | 78 | 1013.5 |
| 20260503071511 | 56 | 178 | 1.0 | 1.0 | 0.00 | 0.00 | 0.00 | 78 | 1013.4 |
| 20260503071008 | 56 | 136 | 1.0 | 1.0 | 0.00 | 0.00 | 0.00 | 78 | 1013.3 |
| 20260503070504 | 56 | 284 | 1.0 | 2.0 | 0.00 | 0.00 | 0.00 | 78 | 1013.5 |
| 20260503054922 | 57 | 212 | 0.0 | 0.0 | 0.00 | 0.00 | 0.00 | 77 | 1013.9 |
| 20260503054419 | 57 | 291 | 2.0 | 2.0 | 0.00 | 0.00 | 0.00 | 77 | 1013.6 |
| 20260503053917 | 57 | 184 | 0.0 | 0.0 | 0.00 | 0.00 | 0.00 | 77 | 1013.8 |
| 20260503053414 | 57 | 232 | 1.0 | 1.0 | 0.00 | 0.00 | 0.00 | 77 | 1013.9 |
| 20260503052910 | 57 | 268 | 1.0 | 1.0 | 0.00 | 0.00 | 0.00 | 77 | 1013.7 |
| 20260503052408 | 57 | 286 | 2.0 | 2.0 | 0.00 | 0.00 | 0.00 | 77 | 1013.8 |
| 20260503051904 | 56 | 264 | 2.0 | 2.0 | 0.00 | 0.00 | 0.00 | 76 | 1013.8 |
| 20260503051400 | 57 | 233 | 1.0 | 2.0 | 0.00 | 0.00 | 0.00 | 76 | 1013.8 |
| 20260503050857 | 57 | 216 | 1.0 | 2.0 | 0.00 | 0.00 | 0.00 | 76 | 1013.8 |
| 20260503050353 | 57 | 0 | 1.0 | 1.0 | 0.00 | 0.00 | 0.00 | 75 | 1013.7 |
| 20260503045851 | 57 | 317 | 2.0 | 3.0 | 0.00 | 0.00 | 0.00 | 76 | 1013.7 |
| 20260503045349 | 57 | 22 | 2.0 | 3.0 | 0.00 | 0.00 | 0.00 | 76 | 1013.7 |
| 20260503044845 | 57 | 224 | 2.0 | 3.0 | 0.00 | 0.00 | 0.00 | 76 | 1013.8 |
| 20260503044342 | 57 | 299 | 2.0 | 3.0 | 0.00 | 0.00 | 0.00 | 76 | 1013.8 |
| 20260503043839 | 57 | 323 | 2.0 | 3.0 | 0.00 | 0.00 | 0.00 | 76 | 1013.5 |
| 20260503043336 | 57 | 335 | 2.0 | 3.0 | 0.00 | 0.00 | 0.00 | 76 | 1013.7 |
| 20260503042832 | 57 | 276 | 2.0 | 2.0 | 0.00 | 0.00 | 0.00 | 77 | 1013.3 |
| 20260503042329 | 57 | 355 | 3.0 | 3.0 | 0.00 | 0.00 | 0.00 | 77 | 1013.6 |
| 20260503041825 | 57 | 331 | 3.0 | 3.0 | 0.00 | 0.00 | 0.00 | 77 | 1013.6 |
| 20260503041322 | 57 | 77 | 4.0 | 6.0 | 0.00 | 0.00 | 0.00 | 76 | 1013.5 |
| 20260503040820 | 57 | 325 | 1.0 | 2.0 | 0.00 | 0.00 | 0.00 | 76 | 1013.5 |
| 20260503040317 | 57 | 188 | 1.0 | 2.0 | 0.00 | 0.00 | 0.00 | 76 | 1013.4 |
| 20260503035814 | 57 | 323 | 5.0 | 7.0 | 0.00 | 0.00 | 0.00 | 76 | 1013.4 |
| 20260503035312 | 57 | 190 | 2.0 | 2.0 | 0.00 | 0.00 | 0.00 | 76 | 1013.4 |
| 20260503034809 | 57 | 12 | 2.0 | 3.0 | 0.00 | 0.00 | 0.00 | 76 | 1013.3 |
| 20260503034305 | 57 | 146 | 3.0 | 4.0 | 0.00 | 0.00 | 0.00 | 76 | 1013.1 |
| 20260503033803 | 57 | 336 | 2.0 | 3.0 | 0.00 | 0.00 | 0.00 | 76 | 1013.1 |
| 20260503033300 | 57 | 349 | 4.0 | 6.0 | 0.00 | 0.00 | 0.00 | 76 | 1013.1 |
| 20260503032758 | 57 | 267 | 4.0 | 6.0 | 0.00 | 0.00 | 0.00 | 76 | 1012.9 |
| 20260503032257 | 57 | 285 | 2.0 | 3.0 | 0.00 | 0.00 | 0.00 | 75 | 1013.0 |
| 20260503031753 | 57 | 352 | 6.0 | 8.0 | 0.00 | 0.00 | 0.00 | 75 | 1013.1 |
| 20260503031252 | 57 | 345 | 4.0 | 7.0 | 0.00 | 0.00 | 0.00 | 74 | 1013.0 |
| 20260503030747 | 58 | 30 | 1.0 | 2.0 | 0.00 | 0.00 | 0.00 | 74 | 1012.9 |
| 20260503030244 | 58 | 307 | 4.0 | 6.0 | 0.00 | 0.00 | 0.00 | 73 | 1012.8 |
| 20260503025741 | 58 | 298 | 4.0 | 6.0 | 0.00 | 0.00 | 0.00 | 73 | 1012.8 |
| 20260503025239 | 58 | 346 | 6.0 | 7.0 | 0.00 | 0.00 | 0.00 | 73 | 1012.6 |
| 20260503024735 | 58 | 306 | 1.0 | 2.0 | 0.00 | 0.00 | 0.00 | 73 | 1012.7 |
| 20260503024232 | 58 | 310 | 2.0 | 3.0 | 0.00 | 0.00 | 0.00 | 73 | 1012.6 |
| 20260503023729 | 58 | 305 | 3.0 | 4.0 | 0.00 | 0.00 | 0.00 | 72 | 1012.6 |
| 20260503023226 | 58 | 324 | 6.0 | 7.0 | 0.00 | 0.00 | 0.00 | 72 | 1012.5 |
| 20260503022722 | 58 | 27 | 3.0 | 6.0 | 0.00 | 0.00 | 0.00 | 72 | 1012.5 |
| 20260503022217 | 59 | 11 | 5.0 | 7.0 | 0.00 | 0.00 | 0.00 | 71 | 1012.4 |
| 20260503021714 | 59 | 3 | 0.0 | 1.0 | 0.00 | 0.00 | 0.00 | 71 | 1012.5 |
| 20260503021210 | 59 | 21 | 5.0 | 7.0 | 0.00 | 0.00 | 0.00 | 71 | 1012.4 |
| 20260503020708 | 60 | 312 | 2.0 | 3.0 | 0.00 | 0.00 | 0.00 | 70 | 1012.4 |
| 20260503020205 | 60 | 231 | 2.0 | 3.0 | 0.00 | 0.00 | 0.00 | 71 | 1012.4 |
| 20260503015702 | 61 | 278 | 4.0 | 6.0 | 0.00 | 0.00 | 0.00 | 70 | 1012.4 |
| 20260503015159 | 62 | 5 | 3.0 | 4.0 | 0.00 | 0.00 | 0.00 | 70 | 1012.5 |
| 20260503014654 | 63 | 354 | 4.0 | 6.0 | 0.00 | 0.00 | 0.00 | 69 | 1012.3 |
| 20260503014153 | 62 | 308 | 2.0 | 2.0 | 0.00 | 0.00 | 0.00 | 69 | 1012.3 |
| 20260503013650 | 63 | 302 | 3.0 | 4.0 | 0.00 | 0.00 | 0.00 | 69 | 1012.3 |
| 20260503013148 | 63 | 259 | 1.0 | 1.0 | 0.00 | 0.00 | 0.00 | 69 | 1012.2 |
| 20260503012644 | 63 | 312 | 1.0 | 1.0 | 0.00 | 0.00 | 0.00 | 68 | 1012.3 |
| 20260503012141 | 63 | 206 | 1.0 | 1.0 | 0.00 | 0.00 | 0.00 | 69 | 1012.4 |
| 20260503011637 | 63 | 332 | 4.0 | 6.0 | 0.00 | 0.00 | 0.00 | 68 | 1012.4 |
| 20260503011135 | 64 | 342 | 3.0 | 4.0 | 0.00 | 0.00 | 0.00 | 67 | 1012.2 |
| 20260503010631 | 63 | 163 | 1.0 | 2.0 | 0.00 | 0.00 | 0.00 | 68 | 1012.2 |
| 20260503010129 | 64 | 181 | 1.0 | 2.0 | 0.00 | 0.00 | 0.00 | 67 | 1012.4 |
| 20260503005625 | 64 | 336 | 3.0 | 3.0 | 0.00 | 0.00 | 0.00 | 66 | 1012.4 |
| 20260503005123 | 65 | 329 | 3.0 | 4.0 | 0.00 | 0.00 | 0.00 | 65 | 1012.3 |
| 20260503004619 | 65 | 292 | 1.0 | 2.0 | 0.00 | 0.00 | 0.00 | 65 | 1012.1 |
| 20260503004118 | 65 | 297 | 4.0 | 6.0 | 0.00 | 0.00 | 0.00 | 65 | 1012.1 |
| 20260503003614 | 65 | 319 | 2.0 | 3.0 | 0.00 | 0.00 | 0.00 | 65 | 1012.3 |
| 20260503003111 | 66 | 195 | 1.0 | 3.0 | 0.00 | 0.00 | 0.00 | 65 | 1012.4 |
| 20260503002608 | 66 | 283 | 3.0 | 3.0 | 0.00 | 0.00 | 0.00 | 64 | 1012.4 |
| 20260503002104 | 65 | 57 | 4.0 | 6.0 | 0.00 | 0.00 | 0.00 | 66 | 1012.4 |
| 20260503001601 | 65 | 277 | 3.0 | 4.0 | 0.00 | 0.00 | 0.00 | 66 | 1012.4 |
| 20260503001058 | 65 | 302 | 9.0 | 10.0 | 0.00 | 0.00 | 0.00 | 65 | 1012.5 |
| 20260503000555 | 66 | 352 | 4.0 | 6.0 | 0.00 | 0.00 | 0.00 | 65 | 1012.5 |
| 20260503000052 | 66 | 304 | 5.0 | 7.0 | 0.00 | 0.00 | 0.00 | 64 | 1012.4 |
| 20260502235548 | 65 | 280 | 5.0 | 8.0 | 0.00 | 0.00 | 0.00 | 66 | 1012.3 |
| 20260502235047 | 66 | 297 | 6.0 | 8.0 | 0.00 | 0.00 | 0.00 | 62 | 1012.6 |
| 20260502234543 | 67 | 350 | 4.0 | 6.0 | 0.00 | 0.00 | 0.00 | 62 | 1012.5 |
| 20260502234041 | 66 | 331 | 7.0 | 8.0 | 0.00 | 0.00 | 0.00 | 64 | 1012.6 |
| 20260502233540 | 67 | 288 | 2.0 | 2.0 | 0.00 | 0.00 | 0.00 | 62 | 1012.5 |
| 20260502233038 | 67 | 3 | 2.0 | 3.0 | 0.00 | 0.00 | 0.00 | 63 | 1012.6 |
| 20260502232534 | 66 | 311 | 5.0 | 8.0 | 0.00 | 0.00 | 0.00 | 64 | 1012.7 |
| 20260502232032 | 65 | 326 | 4.0 | 7.0 | 0.00 | 0.00 | 0.00 | 65 | 1012.9 |
| 20260502231528 | 66 | 319 | 5.0 | 7.0 | 0.00 | 0.00 | 0.00 | 65 | 1012.8 |
| 20260502231026 | 66 | 321 | 3.0 | 6.0 | 0.00 | 0.00 | 0.00 | 65 | 1013.0 |
| 20260502230524 | 66 | 276 | 5.0 | 6.0 | 0.00 | 0.00 | 0.00 | 67 | 1013.1 |
| 20260502230022 | 66 | 311 | 8.0 | 9.0 | 0.00 | 0.00 | 0.00 | 64 | 1013.1 |
| 20260502225517 | 68 | 85 | 1.0 | 3.0 | 0.00 | 0.00 | 0.00 | 61 | 1013.2 |
| 20260502225015 | 68 | 71 | 4.0 | 4.0 | 0.00 | 0.00 | 0.00 | 62 | 1013.2 |
| 20260502224511 | 67 | 14 | 3.0 | 3.0 | 0.00 | 0.00 | 0.00 | 62 | 1013.2 |
| 20260502224008 | 67 | 10 | 5.0 | 7.0 | 0.00 | 0.00 | 0.00 | 62 | 1013.5 |
| 20260502223506 | 68 | 314 | 3.0 | 6.0 | 0.00 | 0.00 | 0.00 | 62 | 1013.3 |
| 20260502223004 | 67 | 322 | 5.0 | 9.0 | 0.00 | 0.00 | 0.00 | 62 | 1013.3 |
| 20260502222501 | 68 | 303 | 6.0 | 8.0 | 0.00 | 0.00 | 0.00 | 64 | 1013.6 |
| 20260502221956 | 68 | 206 | 1.0 | 2.0 | 0.00 | 0.00 | 0.00 | 62 | 1013.7 |
| 20260502221453 | 69 | 320 | 4.0 | 6.0 | 0.00 | 0.00 | 0.00 | 61 | 1013.8 |
| 20260502220950 | 69 | 1 | 3.0 | 4.0 | 0.00 | 0.00 | 0.00 | 60 | 1013.7 |
| 20260502220445 | 70 | 288 | 5.0 | 7.0 | 0.00 | 0.00 | 0.00 | 60 | 1013.6 |
| 20260502215943 | 68 | 264 | 3.0 | 4.0 | 0.00 | 0.00 | 0.00 | 62 | 1013.9 |
| 20260502215440 | 67 | 42 | 5.0 | 7.0 | 0.00 | 0.00 | 0.00 | 64 | 1013.9 |
| 20260502214937 | 68 | 318 | 8.0 | 10.0 | 0.00 | 0.00 | 0.00 | 61 | 1014.0 |
| 20260502214433 | 68 | 337 | 2.0 | 2.0 | 0.00 | 0.00 | 0.00 | 64 | 1014.1 |
| 20260502213931 | 69 | 302 | 5.0 | 7.0 | 0.00 | 0.00 | 0.00 | 61 | 1013.9 |
| 20260502213427 | 66 | 332 | 3.0 | 3.0 | 0.00 | 0.00 | 0.00 | 65 | 1014.1 |
| 20260502212926 | 66 | 323 | 7.0 | 10.0 | 0.00 | 0.00 | 0.00 | 66 | 1014.1 |
| 20260502212425 | 67 | 315 | 6.0 | 7.0 | 0.00 | 0.00 | 0.00 | 64 | 1014.3 |
| 20260502211921 | 68 | 356 | 4.0 | 7.0 | 0.00 | 0.00 | 0.00 | 63 | 1014.3 |
| 20260502211417 | 69 | 343 | 2.0 | 2.0 | 0.00 | 0.00 | 0.00 | 61 | 1014.3 |
| 20260502210914 | 68 | 71 | 1.0 | 1.0 | 0.00 | 0.00 | 0.00 | 64 | 1014.3 |
| 20260502210411 | 68 | 170 | 0.0 | 1.0 | 0.00 | 0.00 | 0.00 | 65 | 1014.1 |
| 20260502205909 | 68 | 320 | 4.0 | 6.0 | 0.00 | 0.00 | 0.00 | 63 | 1014.4 |
| 20260502205404 | 67 | 356 | 4.0 | 4.0 | 0.00 | 0.00 | 0.00 | 64 | 1014.6 |
| 20260502204902 | 68 | 162 | 2.0 | 3.0 | 0.00 | 0.00 | 0.00 | 63 | 1014.4 |
| 20260502204359 | 69 | 322 | 4.0 | 6.0 | 0.00 | 0.00 | 0.00 | 63 | 1014.6 |
| 20260502203856 | 69 | 35 | 3.0 | 4.0 | 0.00 | 0.00 | 0.00 | 61 | 1014.5 |
| 20260502203354 | 68 | 46 | 2.0 | 3.0 | 0.00 | 0.00 | 0.00 | 63 | 1014.5 |
| 20260502202849 | 69 | 135 | 2.0 | 3.0 | 0.00 | 0.00 | 0.00 | 63 | 1014.5 |
| 20260502202347 | 69 | 192 | 2.0 | 3.0 | 0.00 | 0.00 | 0.00 | 60 | 1014.6 |
| 20260502201845 | 68 | 187 | 2.0 | 3.0 | 0.00 | 0.00 | 0.00 | 64 | 1014.8 |
| 20260502201341 | 66 | 183 | 1.0 | 1.0 | 0.00 | 0.00 | 0.00 | 66 | 1014.7 |
| 20260502200837 | 66 | 315 | 2.0 | 3.0 | 0.00 | 0.00 | 0.00 | 65 | 1014.7 |
| 20260502200333 | 68 | 80 | 3.0 | 6.0 | 0.00 | 0.00 | 0.00 | 64 | 1014.9 |
| 20260502195831 | 69 | 291 | 2.0 | 4.0 | 0.00 | 0.00 | 0.00 | 61 | 1015.0 |
| 20260502195327 | 67 | 172 | 1.0 | 1.0 | 0.00 | 0.00 | 0.00 | 64 | 1015.0 |
| 20260502194824 | 67 | 33 | 2.0 | 2.0 | 0.00 | 0.00 | 0.00 | 64 | 1014.9 |
| 20260502194321 | 68 | 116 | 1.0 | 2.0 | 0.00 | 0.00 | 0.00 | 64 | 1014.9 |
| 20260502193817 | 67 | 58 | 1.0 | 1.0 | 0.00 | 0.00 | 0.00 | 65 | 1015.1 |
| 20260502193314 | 66 | 310 | 3.0 | 4.0 | 0.00 | 0.00 | 0.00 | 66 | 1014.9 |
| 20260502192809 | 66 | 307 | 4.0 | 4.0 | 0.00 | 0.00 | 0.00 | 66 | 1015.2 |
| 20260502192307 | 66 | 3 | 1.0 | 2.0 | 0.00 | 0.00 | 0.00 | 66 | 1015.2 |
| 20260502191804 | 66 | 314 | 2.0 | 2.0 | 0.00 | 0.00 | 0.00 | 65 | 1015.0 |
| 20260502191301 | 66 | 195 | 0.0 | 1.0 | 0.00 | 0.00 | 0.00 | 66 | 1015.2 |
| 20260502190758 | 67 | 161 | 1.0 | 1.0 | 0.00 | 0.00 | 0.00 | 65 | 1015.0 |
| 20260502190256 | 68 | 162 | 1.0 | 1.0 | 0.00 | 0.00 | 0.00 | 64 | 1015.2 |
| 20260502185751 | 69 | 8 | 3.0 | 3.0 | 0.00 | 0.00 | 0.00 | 62 | 1015.3 |
| 20260502185247 | 67 | 173 | 0.0 | 0.0 | 0.00 | 0.00 | 0.00 | 65 | 1015.1 |
| 20260502184744 | 65 | 159 | 1.0 | 2.0 | 0.00 | 0.00 | 0.00 | 68 | 1015.3 |
| 20260502184240 | 66 | 184 | 1.0 | 1.0 | 0.00 | 0.00 | 0.00 | 67 | 1015.2 |